Probability
3 3 2 2 1 0 0 0 0 0 0 0 0 0 0 0 0 0 0 0 0 0 0 0 0 0 0 0 0 0 0 0 0 0 0 0 0 0 0 0 0 0 0
2 2 2 1 0 0 0 0 0 0 0 0 0 0 0 0 0 0 0 0 0 0 0 0 0 0 0 0 0 0 0 0 0 0 0 0 0 0 0 0 0 0 0
2 2 1 0 0 0 0 0 0 0 0 0 0 0 0 0 0 0 0 0 0 0 0 0 0 0 0 0 1 1 0 0 0 0 0 0 0 0 0 0 0 0 0
4 3 1 0 0 0 0 0 0 0 0 0 0 0 0 0 0 0 0 0 0 0 0 0 0 0 0 0 1 1 0 0 0 0 0 0 0 0 0 0 0 0 0
7 4 1 1 1 0 0 0 0 0 0 0 0 0 0 0 0 0 0 0 0 0 0 0 0 0 0 0 1 1 0 0 0 0 0 0 0 0 0 0 0 0 0
8 6 3 2 2 1 1 0 0 0 0 0 0 0 0 0 0 0 0 0 0 0 0 0 0 0 0 0 0 0 0 0 0 0 0 0 0 0 0 0 0 0 0
8 6 5 4 3 3 2 1 0 0 0 0 0 0 0 0 0 0 0 0 0 0 0 0 0 0 0 0 0 0 0 0 0 0 0 0 0 0 0 0 0 0 0
7 6 5 4 3 3 3 1 0 0 0 0 0 0 0 0 0 0 0 0 0 0 0 0 0 0 0 0 0 0 0 0 0 0 0 0 0 0 0 0 0 0 0
7 6 4 3 3 3 3 2 1 0 0 0 0 0 0 0 0 0 0 0 0 0 0 0 0 0 0 0 0 0 0 0 0 0 0 0 0 0 0 0 0 0 0
8 6 4 3 3 3 3 3 1 0 0 0 0 0 0 0 0 0 0 0 0 0 0 0 0 0 0 1 1 1 0 0 0 0 0 0 0 0 0 0 0 0 0
10 7 5 4 3 3 3 3 2 1 0 0 0 0 0 0 0 0 0 0 0 0 0 0 1 1 0 1 2 2 1 0 0 0 0 0 0 0 0 0 0 0 0
9 7 5 4 4 3 3 3 2 1 0 0 0 0 0 0 0 0 0 0 0 0 0 0 1 1 1 1 2 3 2 1 0 0 0 0 0 0 0 0 0 0 0
8 8 6 4 4 4 3 3 2 1 0 0 0 0 0 0 0 0 0 0 0 0 0 0 1 1 1 1 2 3 3 1 0 0 0 0 0 0 0 0 0 0 0
8 9 8 5 4 4 3 3 2 1 0 0 0 0 0 0 0 0 0 0 0 0 0 0 1 1 1 2 2 3 4 2 0 0 0 0 0 0 0 0 0 0 0
8 9 8 6 4 4 3 3 2 1 1 0 0 0 0 0 0 0 0 0 0 0 0 0 0 1 2 2 2 3 4 2 0 0 0 0 0 0 0 0 0 0 0
8 8 7 5 4 3 3 3 2 3 3 1 0 0 0 0 0 0 0 0 0 0 0 0 1 3 5 4 2 2 3 1 0 0 0 0 0 0 0 0 0 0 0
8 7 6 4 2 2 3 2 2 2 3 2 1 1 2 2 2 1 0 0 1 1 0 0 2 8 15 16 12 9 4 1 0 0 0 0 0 0 0 0 0 0 0
7 6 4 2 1 1 1 1 1 0 1 2 2 3 4 5 4 3 1 1 1 1 0 0 3 12 22 27 25 17 9 4 1 0 0 0 0 0 0 0 0 0 0
6 4 3 2 1 0 0 1 1 1 1 2 3 5 6 7 8 7 5 4 3 2 1 1 2 9 19 27 28 20 13 10 5 0 0 0 0 0 0 0 0 0 0
5 6 6 4 2 0 0 1 3 3 3 3 5 6 7 8 9 8 7 7 6 4 3 2 2 4 11 20 24 19 14 12 7 2 0 0 0 1 1 0 0 0 0
8 10 11 7 3 1 1 2 4 6 7 7 6 6 7 6 5 4 4 4 4 4 4 3 3 2 5 12 15 13 10 8 6 5 3 1 1 3 3 1 0 0 0
13 14 14 9 3 1 1 1 3 8 11 11 9 7 5 3 1 0 0 1 1 1 2 2 2 2 3 6 7 7 6 5 5 6 6 3 2 4 3 1 0 0 0
17 17 15 9 3 1 0 0 2 7 11 11 8 7 4 1 0 0 0 1 1 1 0 0 0 1 3 4 4 4 5 5 5 6 6 4 3 3 2 1 0 0 0
23 21 15 8 3 1 0 0 2 5 6 5 4 3 2 0 0 0 0 2 2 2 0 0 0 0 1 3 3 2 3 4 4 4 3 3 2 2 1 1 0 0 0
21 19 12 5 2 0 0 0 1 2 1 0 0 0 0 0 0 0 0 1 1 1 0 0 0 0 0 1 1 0 1 1 1 1 1 1 1 1 1 1 0 0 0
14 11 7 3 1 0 0 0 0 0 0 0 0 0 0 0 0 0 0 0 0 0 0 0 0 0 0 0 0 0 0 0 0 0 0 0 0 0 0 1 0 0 0
Wind_Speed
2 3 2 2 2 3 3 2 2 2 1 2 1 2 1 2 4 6 6 11 11 10 10 9 9 8 8 7 8 7 7 7 7 6 6 6 6 6 6 5 5 4 4
3 3 2 1 1 1 2 1 2 2 1 2 1 2 1 2 3 6 7 7 10 10 10 9 9 8 8 8 8 8 8 7 7 6 6 6 6 6 6 6 5 5 4
4 3 2 2 2 2 2 1 2 1 2 2 2 1 1 1 2 4 6 6 6 9 10 9 9 9 8 8 9 9 9 8 7 7 7 7 7 6 6 6 6 5 5
4 2 2 2 2 2 2 1 1 2 1 1 2 1 2 1 2 2 3 5 5 6 8 10 10 9 9 9 9 9 9 9 8 8 8 7 8 7 7 7 7 6 6
4 2 2 3 2 1 2 2 2 1 1 1 2 2 1 2 2 3 3 3 4 5 5 9 10 10 10 10 9 9 9 9 9 9 9 9 9 8 8 8 8 8 7
4 3 3 3 2 2 2 2 3 1 1 1 1 3 1 2 2 2 2 3 4 5 6 7 6 7 11 10 9 9 9 9 10 10 10 10 10 9 9 9 9 9 9
4 2 3 3 1 2 3 3 2 2 1 1 0 1 1 2 3 2 2 2 3 3 4 6 5 5 5 10 9 9 10 10 10 10 10 11 11 10 10 11 10 10 10
5 4 3 3 3 2 2 2 1 1 2 2 1 1 1 1 2 4 3 3 3 3 4 6 5 4 4 5 7 11 10 9 10 10 10 10 10 10 10 11 11 11 11
4 3 4 1 2 3 3 2 2 2 1 2 2 1 0 1 1 2 3 3 3 2 2 3 5 6 5 4 5 9 10 8 9 9 9 8 9 9 10 10 11 11 11
5 5 4 3 2 1 4 4 3 1 1 1 1 1 1 1 0 1 1 3 4 3 2 3 4 5 4 3 5 9 10 9 8 8 8 8 8 8 8 9 10 10 10
4 5 4 3 2 1 3 1 3 1 1 2 1 1 2 1 2 1 2 2 2 3 4 3 2 4 5 5 5 8 10 9 8 7 7 7 7 7 8 9 9 10 10
4 5 5 4 3 2 3 2 2 2 1 1 2 1 0 1 2 1 1 2 3 3 3 3 3 3 4 5 6 11 12 10 9 7 7 6 7 7 7 8 9 9 10
4 5 5 4 3 2 3 3 2 1 2 1 1 2 2 1 1 2 2 1 1 1 2 3 3 3 4 4 5 12 12 12 10 9 8 8 7 7 7 7 7 8 9
5 6 6 5 4 4 4 3 2 3 2 1 2 2 2 2 2 2 1 2 2 2 2 3 3 4 3 4 7 12 8 13 12 11 10 10 9 9 8 8 8 8 8
6 8 7 6 5 4 3 3 2 2 3 3 3 3 2 2 2 2 2 1 1 2 3 2 1 3 3 3 9 6 5 12 14 13 12 12 11 11 11 10 10 10 10
5 7 6 6 5 4 3 3 2 2 2 2 1 1 1 2 2 1 1 2 2 2 3 2 1 1 2 3 9 5 4 9 14 14 14 14 14 14 13 13 12 12 12
6 6 6 5 5 5 4 3 3 3 3 3 3 3 3 3 2 3 2 2 2 2 3 3 2 1 2 1 3 4 4 4 7 15 17 17 16 15 15 15 14 14 14
5 6 5 4 4 5 4 4 4 3 3 4 4 3 3 3 3 3 3 3 3 2 2 4 3 3 2 3 4 4 5 6 5 11 17 18 17 17 16 16 15 15 15
5 5 5 4 4 3 4 4 4 3 3 3 2 2 2 2 2 2 3 3 3 4 2 3 4 3 3 3 3 4 6 4 7 8 10 14 16 16 16 16 16 16 16
5 4 4 3 2 2 1 2 2 2 2 1 1 0 1 1 1 2 3 3 3 4 4 4 4 4 3 3 2 2 3 3 4 7 5 5 10 14 16 17 17 17 17
5 4 3 2 2 1 2 1 0 1 1 0 1 1 2 4 5 3 3 3 3 3 3 4 4 4 3 3 3 3 4 4 4 4 3 4 3 4 6 11 15 16 16
4 4 3 3 3 3 5 6 3 2 2 2 2 2 3 5 5 4 4 4 3 3 3 3 4 4 4 4 3 4 4 4 4 3 3 5 5 5 5 5 9 12 14
5 5 5 6 7 7 8 8 8 4 4 4 4 4 5 7 8 5 4 3 3 2 1 2 4 4 4 4 4 5 5 5 5 5 5 7 6 7 7 9 11 11 12
6 6 7 7 7 9 10 10 7 4 5 6 6 6 6 7 8 7 6 4 4 3 3 2 2 3 4 3 3 4 5 6 6 6 5 7 6 6 8 5 9 12 12
8 8 8 8 9 9 11 11 8 4 5 6 6 7 6 6 8 9 6 5 5 4 4 5 5 6 8 9 7 4 4 5 6 6 4 5 5 6 5 5 7 10 10
8 9 9 9 10 9 12 13 11 5 5 4 5 7 10 7 7 8 5 5 5 6 7 8 7 7 7 7 8 5 4 5 6 5 3 4 5 6 6 4 4 5 6
Wind_Direction
137 127 129 132 158 150 169 168 139 124 130 118 138 128 88 86 114 119 135 155 158 162 165 167 167 169 170 168 169 170 172 173 171 169 171 171 167 164 160 156 152 149 144
131 126 127 123 115 102 92 99 111 123 126 108 113 112 114 104 105 129 144 161 166 166 171 176 179 181 182 182 184 187 188 189 182 181 183 184 181 182 180 175 172 168 165
123 128 138 167 132 114 106 117 122 159 168 151 132 124 112 107 117 135 148 158 167 176 180 183 186 190 193 194 195 197 198 198 192 191 194 194 193 193 193 189 188 187 186
135 162 165 144 133 137 153 144 194 164 117 129 135 127 122 134 129 147 165 163 165 171 183 190 190 195 200 203 204 204 203 201 198 198 200 202 203 203 202 200 200 200 200
151 179 127 116 165 162 164 176 127 96 131 140 143 152 176 154 157 182 170 166 160 159 169 184 192 196 201 205 209 210 205 204 203 205 208 211 212 210 209 208 210 209 208
167 169 143 150 195 162 127 83 90 77 106 212 215 151 165 153 173 154 179 179 171 177 178 172 182 200 206 207 210 211 211 212 211 213 216 219 221 219 215 213 214 215 214
157 183 136 157 199 133 132 145 144 163 205 202 168 155 175 191 168 160 194 179 179 178 167 163 180 182 194 207 210 211 216 217 217 219 221 224 227 225 220 219 217 218 219
164 170 129 172 147 129 128 136 123 189 222 172 187 184 185 198 222 187 166 188 176 173 182 179 176 174 189 177 199 208 215 217 220 222 224 227 229 229 225 223 221 221 222
168 133 146 153 146 167 152 174 182 207 250 181 185 135 186 169 194 171 187 162 157 183 197 173 182 181 195 174 175 197 206 211 219 222 222 222 226 230 228 227 226 226 227
162 151 157 146 164 163 145 190 181 199 246 255 192 167 160 86 71 142 224 170 183 186 215 210 184 174 184 164 162 174 190 199 209 217 220 220 222 225 226 228 230 232 232
162 156 152 151 173 183 149 147 124 182 274 268 277 202 183 185 241 212 188 178 201 191 189 201 191 179 179 176 168 174 180 187 197 208 215 219 221 222 224 226 233 236 238
168 161 155 161 177 169 137 145 143 187 268 343 342 341 123 225 255 264 207 202 201 198 180 182 185 188 187 183 186 171 176 183 189 196 202 210 216 220 223 228 233 238 243
168 167 160 162 172 144 151 165 165 220 197 218 310 317 330 320 334 339 331 307 302 189 182 192 195 194 200 160 158 168 179 183 190 198 205 211 216 219 223 229 236 242 245
162 155 151 164 172 170 177 168 182 198 189 203 247 283 321 319 329 323 316 336 319 289 217 208 191 187 193 161 170 176 183 191 197 203 209 215 220 224 228 232 236 241 244
150 153 159 167 174 179 175 159 216 202 161 197 229 220 251 274 265 291 311 312 299 302 295 241 190 188 173 147 157 189 189 199 204 209 214 219 223 227 231 234 237 240 242
144 153 162 166 170 173 177 191 210 189 182 212 245 258 240 288 287 261 266 278 273 273 285 308 267 201 176 185 173 202 217 201 208 214 218 221 224 228 231 234 237 240 242
150 157 162 167 175 177 182 193 226 188 201 217 235 227 226 268 308 314 294 271 264 262 272 287 295 266 170 205 166 221 236 217 213 218 221 224 225 228 230 233 235 238 239
159 160 166 173 188 187 182 191 219 213 206 214 230 233 234 238 235 277 300 299 292 284 270 284 294 298 259 224 215 227 249 251 245 230 222 224 226 228 231 233 235 237 239
165 166 170 183 196 191 183 197 214 222 222 226 230 233 241 257 259 266 273 292 301 294 270 265 274 274 271 260 246 244 252 260 271 273 238 227 230 233 235 237 238 238 239
167 169 168 166 171 174 183 205 213 222 226 238 248 268 291 293 297 293 286 294 299 304 304 295 284 285 282 283 273 266 277 275 275 283 289 257 236 236 238 240 242 242 241
167 147 133 124 114 92 30 17 239 218 162 61 13 18 50 56 49 26 351 347 332 319 313 311 305 307 312 333 331 321 302 303 289 281 299 298 280 259 249 249 249 248 245
132 123 117 106 82 59 38 45 41 41 59 62 47 51 70 54 45 34 15 1 348 322 322 322 317 319 329 338 336 325 319 314 300 318 333 304 303 291 279 266 258 251 247
121 106 105 95 82 55 48 44 39 49 57 57 48 41 41 48 33 15 357 356 21 16 305 298 303 313 320 336 337 324 319 309 291 298 302 287 284 283 279 283 280 272 261
110 102 95 92 83 58 46 42 34 59 69 66 61 62 66 52 29 13 358 6 2 11 347 318 319 307 307 306 294 292 290 289 279 273 264 272 277 277 281 280 283 277 266
98 93 91 87 81 59 44 39 30 70 75 69 67 60 63 63 34 17 9 4 356 351 341 327 302 287 284 280 272 282 286 291 295 296 297 291 296 302 295 290 288 292 286
99 94 86 82 81 69 48 42 35 46 57 62 83 77 62 55 36 22 12 359 350 345 336 325 310 292 278 272 263 242 263 289 298 301 315 325 315 319 305 292 306 316 310